COSMOS 2251 DEB

Satellite information

Favourite Embed

Satellite Type and Status

DEBRISIN ORBIT

Key statistics

Satellite COSMOS 2251 DEB at a glance.

Uptime

11769

Days in orbit

Revolutions

≈ 14.8

Per day

Orbit

LEO

Low Earth Orbit

Inclination

74.0

Latest

Satellite identification and parameters

Extended collection of information and parameters for COSMOS 2251 DEB.

Object identification

Identified? True

Debris? True

Object name: COSMOS 2251 DEB

International designator: 1993-036LH

Object number (NORAD): 34136

Object ID (CCSDS): 34136

Country: COMMONWEALTH OF INDEPENDENT STATES (CIS)

Current information (Y/N): Y

RCS size: SMALL

Orbital parameters

Period: 97.374 minutes

Inclination: 74.0174 deg

SMA: 7011.123 km

Apoapsis: 695.068 km

Periapsis: 570.907 km

RAAN: 238.6423 deg

Eccentricy: 0.00885462

Argument of periapsis: 25.0203 deg

Mean anomaly: 355.7429 deg

Mean motion: 14.78840796 rev/day

Mean motion (dot): 0.00006857 rev/day2

B* drag term: 0.00087575968 1/REarth

Two-line elements (TLE)

Creation date: Sept. 4, 2025, 10:13 a.m.

Reference frame: TEME

Reference center: EARTH

Epoch: Sept. 4, 2025, 6:06 a.m. UTC

TLE line 0: 0 COSMOS 2251 DEB

TLE line 1: 1 34136U 93036LH 25247.25433808 .00006857 00000-0 87576-3 0 9993

TLE line 2: 2 34136 74.0174 238.6423 0088546 25.0203 355.7429 14.78840796885395

Live tracking on map

Real-time ground track for satellite COSMOS 2251 DEB.

In-orbit conjunctions

A list of the most updated potential collisions computed for object COSMOS 2251 DEB.

Target Orbit TCA Probability of collision Miss distance Type
PEGASUS DEB LEO 2025-07-27 18:27:41 0.0001196927 34.0 (m) DEBRIS
ERS 1 DEB SSO 2025-06-28 19:52:10 0.0001445979 93.0 (m) DEBRIS

Associated space launch

Military communications satellite. Destroyed in a collision with Iridium 33.

COSMOS 2251 DEB was lifted into orbit during the mission ‘Kosmos-3M | Strela-2M 51’, on board a Kosmos-3M space rocket.

The launch took place on June 16, 1993, 4:17 a.m. from 132/1 (132L).

For more information about the launch, click the button.

Launch to space Kosmos-3M | Strela-2M 51
Kosmos-3M | Strela-2M 51

Agency: N/A

Status: Launch Successful

Launch date: June 16, 1993, 4:17 a.m. UTC

Rocket: Kosmos-3M

Launch pad: 132/1 (132L)

Location: Plesetsk Cosmodrome, Russian Federation

...

Latest news about this satellite

There are no fresh news available about this satellite. Check back as we update our databases every day.


Newsletter sign-up

Weekly statistics, charts and insights to help you stay on top of the space industry.